Tracking 20942 objects as of 10-Jul-2020
HD Live streaming from Space Station
objects crossing your sky now

GSAT 30

Track GSAT 30 now!
GSAT 30 is classified as:


NORAD ID: 45026
Int'l Code: 2020-005A
Perigee: 35,769.0 km
Apogee: 35,818.3 km
Inclination: 0.0 °
Period: 1,436.1 minutes
Semi major axis: 42164 km
RCS: Unknown
Launch date: January 16, 2020
Source: India (IND)
Launch site: FRENCH GUIANA (FRGUI)
aabbcc
Your satellite tracking list
Your tracking list is empty




NASA's NSSDC Master Catalog

Two Line Element Set (TLE):
1 45026U 20005A   20191.97614084 -.00000171  00000-0  00000+0 0  9995
2 45026   0.0342 103.5571 0005854 342.9434 276.2754  1.00272164  1783
Source of the keplerian elements: AFSPC